Regional Weather Roundup
Issued by NWS

Home | Current Version | Previous Version | Text Only | Print | Product List | Glossary On
Versions: 1 2 3 4 5 6 7 8 9 10 11 12 13 14 15 16 17 18 19 20 21 22 23 24 25 26 27
000
ASUS45 KCYS 250010
RWRWY

WYOMING REGIONAL WEATHER ROUNDUP
NATIONAL WEATHER SERVICE CHEYENNE WY
500 PM MST FRI FEB 24 2017

NOTE:  "FAIR" INDICATES FEW OR NO CLOUDS BELOW 12,000 FEET
WITH NO SIGNIFICANT WEATHER AND/OR OBSTRUCTIONS TO VISIBILITY.

WYZ001-250100-
YELLOWSTONE NATIONAL PARK

CITY           SKY/WX    TMP DP  RH WIND       PRES   REMARKS
LK YELLOWSTONE   N/A     14   6  70 VRB5      29.89R WCI   6
6HR MIN TEMP:   9; 6HR MAX TEMP:  18; 6HR PCP:  0.05;

W YELLOWSTONE  NOT AVBL

$$
WYZ002>013-054>058-071-098>099-250100-
NORTHERN WYOMING

CITY           SKY/WX    TMP DP  RH WIND       PRES   REMARKS
JACKSON        PTSUNNY   19  10  68 S8G20     29.95R WCI   9
CODY           FLURRIES  25  19  78 NE5       29.95R WCI  19
GREYBULL       CLOUDY    30  18  60 CALM      29.98R
6HR MIN TEMP:  26; 6HR MAX TEMP:  30; 6HR PCP:  0.01;

WORLAND        FAIR      29  19  66 CALM      29.96R
6HR MIN TEMP:  26; 6HR MAX TEMP:  31; 6HR PCP: TRACE;

SHERIDAN       CLOUDY    27  18  69 S7        29.97S WCI  19
6HR MIN TEMP:  26; 6HR MAX TEMP:  28;

BUFFALO        CLOUDY    25  16  68 CALM      29.94R
6HR MIN TEMP:  23; 6HR MAX TEMP:  25;

GILLETTE       FAIR      25  17  72 S13       29.97R WCI  14
6HR MIN TEMP:  24; 6HR MAX TEMP:  28;

HULETT         CLOUDY    28  19  69 SW10      29.98S WCI  19
NEWCASTLE      CLOUDY    21  18  86 S5        30.03S WCI  15

$$
WYZ014>020-022>026-101>103-250100-
CENTRAL WYOMING

CITY           SKY/WX    TMP DP  RH WIND       PRES   REMARKS
BIG PINEY      FAIR      12   6  77 NW5       29.93R WCI   4
6HR MIN TEMP:  12; 6HR MAX TEMP:  21;

PINEDALE       FAIR      18   9  68 NW9       29.92S WCI   6
DUBOIS         MOCLDY    14   9  79 CALM      29.85R
LANDER         FAIR      18  12  77 SW5       29.91S WCI  11
6HR MIN TEMP:  17; 6HR MAX TEMP:  23;

RIVERTON       FAIR      20  13  74 CALM      29.93R
6HR MIN TEMP:  19; 6HR MAX TEMP:  23;

CASPER         FAIR      18  11  74 SW9       29.94S WCI   7
6HR MIN TEMP:  18; 6HR MAX TEMP:  22; 6HR PCP: TRACE;

DOUGLAS        FAIR      16  11  80 CALM      29.98S
6HR MIN TEMP:  16; 6HR MAX TEMP:  20;


$$
WYZ021-027>030-104>119-250100-
SOUTHERN WYOMING

CITY           SKY/WX    TMP DP  RH WIND       PRES   REMARKS
EVANSTON       FAIR      14   7  73 W16       29.98R WCI  -2
6HR MIN TEMP:  14; 6HR MAX TEMP:  18; 6HR PCP: TRACE;

FORT BRIDGER   FAIR      19  11  74 W16       29.99R WCI   4
ROCK SPRINGS   FAIR      18   8  65 W17       29.94R WCI   3
6HR MIN TEMP:  16; 6HR MAX TEMP:  21; 6HR PCP: TRACE;

DIXON            N/A     19   9  66 CALM      29.98R
RAWLINS        LGT SNOW  17   9  70 SW7       29.91S WCI   8
6HR MIN TEMP:  16; 6HR MAX TEMP:  19; 6HR PCP: TRACE;

SARATOGA       FAIR      18   9  68 W9G17     29.93R WCI   6
LARAMIE        CLOUDY    16   9  74 NW6       29.87R WCI   7
6HR MIN TEMP:  15; 6HR MAX TEMP:  17; 6HR PCP: TRACE;

CHEYENNE       FAIR      16   8  71 SW7       29.94R WCI   6
6HR MIN TEMP:  16; 6HR MAX TEMP:  20; 6HR PCP: TRACE;

TORRINGTON     FAIR      19  13  77 E5        30.03R WCI  12
6HR MIN TEMP:  18; 6HR MAX TEMP:  26; 6HR PCP:  0.41;

PINE BLUFFS    CLOUDY    21  14  73 N7G17     29.99S WCI  13

$$




USA.gov is the U.S. government's official web portal to all federal, state and local government web resources and services.